When you browse on this site, cookies collect data to enhance your experience and personalize the content and advertising you see.
Visit our Privacy Policy to learn more. By continuing to use the site, you agree to this use of cookies and data.
  • In Hungary
  • List of Countries
  • For 7 days
  • Water Temperature
  • Satellite Maps
  • Weather Map
  • News
  • Weather Widgets
  • user-avatar
    Login

    Hourly Weather Krasnobrod

    Today, 23 April, Tuesday

    Time Temperature Precipitation Wind Pressure Humidity
    00:00 +7°C° 0 mm 5 mps 741 mmHg 63%
    01:00 +6°C° 0 mm 5 mps 741 mmHg 63%
    02:00 +6°C° 0 mm 5 mps 741 mmHg 64%
    03:00 +6°C° 0 mm 5 mps 741 mmHg 64%
    04:00 +5°C° 0 mm 6 mps 741 mmHg 63%
    05:00 +5°C° 0 mm 6 mps 741 mmHg 63%
    06:00 +6°C° 0 mm 7 mps 741 mmHg 58%
    07:00 +7°C° 0 mm 8 mps 741 mmHg 54%
    08:00 +8°C° 0 mm 9 mps 742 mmHg 50%
    09:00 +11°C° 0 mm 9 mps 742 mmHg 47%
    10:00 +12°C° 0 mm 10 mps 741 mmHg 45%
    11:00 +13°C° 0 mm 10 mps 741 mmHg 42%
    12:00 +14°C° 0 mm 10 mps 741 mmHg 42%
    13:00 +14°C° 0 mm 10 mps 741 mmHg 41%
    14:00 +16°C° 0 mm 10 mps 741 mmHg 41%
    15:00 +16°C° 0 mm 9 mps 740 mmHg 42%
    16:00 +15°C° 0 mm 9 mps 740 mmHg 44%
    17:00 +15°C° 0 mm 9 mps 740 mmHg 46%
    18:00 +13°C° 0 mm 8 mps 740 mmHg 50%
    19:00 +11°C° 0 mm 7 mps 740 mmHg 54%
    20:00 +10°C° 0 mm 6 mps 739 mmHg 58%
    21:00 +10°C° 0 mm 6 mps 739 mmHg 57%
    22:00 +9°C° 0 mm 6 mps 740 mmHg 57%
    23:00 +9°C° 0 mm 7 mps 740 mmHg 56%

    Tomorrow, 24 April, Wednesday

    Time Temperature Precipitation Wind Pressure Humidity
    00:00 +9°C° 0 mm 7 mps 740 mmHg 57%
    01:00 +9°C° 0 mm 7 mps 740 mmHg 57%
    02:00 +9°C° 0 mm 7 mps 740 mmHg 57%
    03:00 +9°C° 0 mm 7 mps 739 mmHg 58%
    04:00 +8°C° 0 mm 6 mps 739 mmHg 59%
    05:00 +8°C° 0 mm 6 mps 739 mmHg 59%
    06:00 +9°C° 0 mm 7 mps 739 mmHg 60%
    07:00 +9°C° 0 mm 7 mps 739 mmHg 60%
    08:00 +9°C° 0 mm 7 mps 739 mmHg 60%
    09:00 +10°C° 0 mm 7 mps 740 mmHg 58%
    10:00 +12°C° 0 mm 7 mps 740 mmHg 55%
    11:00 +14°C° 0 mm 7 mps 740 mmHg 53%
    12:00 +15°C° 0 mm 7 mps 740 mmHg 53%
    13:00 +16°C° 0 mm 7 mps 740 mmHg 52%
    14:00 +17°C° 0 mm 7 mps 740 mmHg 52%
    15:00 +16°C° 0 mm 6 mps 740 mmHg 56%
    16:00 +16°C° 0 mm 6 mps 739 mmHg 59%
    17:00 +16°C° 0 mm 5 mps 739 mmHg 63%
    18:00 +14°C° 0 mm 5 mps 739 mmHg 66%
    19:00 +13°C° 0 mm 5 mps 739 mmHg 68%
    20:00 +12°C° 0 mm 5 mps 739 mmHg 71%
    21:00 +12°C° 0 mm 5 mps 739 mmHg 71%
    22:00 +10°C° 0 mm 5 mps 739 mmHg 72%
    23:00 +11°C° 0 mm 4 mps 739 mmHg 72%

    Day after tomorrow, 25 April, Thursday

    Time Temperature Precipitation Wind Pressure Humidity
    00:00 +10°C° 0 mm 4 mps 739 mmHg 74%
    01:00 +10°C° 0 mm 4 mps 739 mmHg 75%
    02:00 +10°C° 0 mm 4 mps 739 mmHg 77%
    03:00 +8°C° 0 mm 4 mps 739 mmHg 78%
    04:00 +8°C° 0 mm 4 mps 739 mmHg 79%
    05:00 +8°C° 0 mm 4 mps 739 mmHg 80%
    06:00 +10°C° 0 mm 4 mps 739 mmHg 77%
    07:00 +10°C° 0 mm 5 mps 739 mmHg 75%
    08:00 +12°C° 0 mm 5 mps 739 mmHg 72%
    09:00 +14°C° 0 mm 5 mps 739 mmHg 69%
    10:00 +15°C° 0 mm 6 mps 739 mmHg 65%
    11:00 +17°C° 0 mm 6 mps 739 mmHg 62%
    12:00 +19°C° 0 mm 6 mps 739 mmHg 59%
    13:00 +21°C° 0 mm 6 mps 739 mmHg 56%
    14:00 +22°C° 0 mm 6 mps 739 mmHg 53%
    15:00 +22°C° 0.4 mm 5 mps 738 mmHg 56%
    16:00 +21°C° 0.4 mm 5 mps 738 mmHg 60%
    17:00 +21°C° 0.4 mm 4 mps 738 mmHg 63%
    18:00 +19°C° 0.2 mm 4 mps 738 mmHg 69%
    19:00 +18°C° 0.2 mm 3 mps 738 mmHg 75%
    20:00 +16°C° 0.2 mm 3 mps 738 mmHg 81%
    21:00 +16°C° 0.1 mm 3 mps 738 mmHg 83%
    22:00 +14°C° 0.1 mm 4 mps 738 mmHg 86%
    23:00 +14°C° 0.1 mm 4 mps 738 mmHg 88%

    26 April, Friday

    Time Temperature Precipitation Wind Pressure Humidity
    00:00 +14°C° 0 mm 3 mps 738 mmHg 90%
    01:00 +13°C° 0 mm 3 mps 738 mmHg 91%
    02:00 +13°C° 0 mm 3 mps 737 mmHg 92%
    03:00 +13°C° 0 mm 3 mps 737 mmHg 92%
    04:00 +12°C° 0 mm 3 mps 737 mmHg 92%
    05:00 +12°C° 0 mm 3 mps 737 mmHg 93%
    06:00 +14°C° 0 mm 4 mps 737 mmHg 86%
    07:00 +15°C° 0 mm 5 mps 737 mmHg 79%
    08:00 +17°C° 0 mm 5 mps 736 mmHg 73%
    09:00 +20°C° 0 mm 6 mps 736 mmHg 65%
    10:00 +21°C° 0 mm 6 mps 736 mmHg 58%
    11:00 +23°C° 0 mm 7 mps 736 mmHg 50%
    12:00 +24°C° 0 mm 7 mps 736 mmHg 48%
    13:00 +26°C° 0 mm 7 mps 735 mmHg 46%
    14:00 +27°C° 0 mm 7 mps 735 mmHg 44%
    15:00 +26°C° 0 mm 7 mps 735 mmHg 46%
    16:00 +26°C° 0 mm 6 mps 734 mmHg 48%
    17:00 +26°C° 0 mm 6 mps 734 mmHg 50%
    18:00 +23°C° 0 mm 5 mps 734 mmHg 56%
    19:00 +21°C° 0 mm 5 mps 734 mmHg 61%
    20:00 +19°C° 0 mm 4 mps 734 mmHg 67%
    21:00 +19°C° 0 mm 4 mps 734 mmHg 71%
    22:00 +18°C° 0 mm 4 mps 734 mmHg 74%
    23:00 +17°C° 0 mm 4 mps 734 mmHg 78%

    27 April, Saturday

    Time Temperature Precipitation Wind Pressure Humidity
    00:00 +17°C° 0 mm 4 mps 734 mmHg 79%
    01:00 +15°C° 0 mm 4 mps 734 mmHg 81%
    02:00 +15°C° 0 mm 4 mps 733 mmHg 83%
    03:00 +15°C° 0 mm 4 mps 733 mmHg 83%
    04:00 +15°C° 0 mm 4 mps 733 mmHg 83%
    05:00 +15°C° 0 mm 4 mps 733 mmHg 83%
    06:00 +17°C° 0 mm 4 mps 733 mmHg 79%
    07:00 +18°C° 0 mm 4 mps 733 mmHg 75%
    08:00 +19°C° 0 mm 5 mps 733 mmHg 71%
    09:00 +20°C° 0 mm 4 mps 733 mmHg 69%
    10:00 +20°C° 0 mm 4 mps 733 mmHg 66%
    11:00 +21°C° 0 mm 4 mps 733 mmHg 64%
    12:00 +21°C° 1.2 mm 4 mps 733 mmHg 66%
    13:00 +20°C° 1.2 mm 5 mps 733 mmHg 68%
    14:00 +20°C° 1.2 mm 5 mps 733 mmHg 71%
    15:00 +19°C° 1.1 mm 5 mps 733 mmHg 73%
    16:00 +17°C° 1.1 mm 5 mps 733 mmHg 76%
    17:00 +17°C° 1.1 mm 5 mps 733 mmHg 79%
    18:00 +15°C° 0.3 mm 5 mps 733 mmHg 82%
    19:00 +13°C° 0.3 mm 5 mps 734 mmHg 86%
    20:00 +12°C° 0.3 mm 5 mps 734 mmHg 89%
    21:00 +10°C° 0 mm 5 mps 734 mmHg 89%
    22:00 +10°C° 0 mm 5 mps 735 mmHg 89%
    23:00 +10°C° 0 mm 5 mps 735 mmHg 89%

    28 April, Sunday

    Time Temperature Precipitation Wind Pressure Humidity
    00:00 +10°C° 0 mm 4 mps 735 mmHg 89%
    01:00 +10°C° 0 mm 4 mps 735 mmHg 90%
    02:00 +9°C° 0 mm 3 mps 735 mmHg 91%
    03:00 +9°C° 0 mm 3 mps 735 mmHg 92%
    04:00 +9°C° 0 mm 3 mps 735 mmHg 93%
    05:00 +8°C° 0 mm 3 mps 735 mmHg 94%
    06:00 +9°C° 0 mm 3 mps 735 mmHg 92%
    07:00 +10°C° 0 mm 3 mps 735 mmHg 89%
    08:00 +10°C° 0 mm 3 mps 736 mmHg 86%
    09:00 +11°C° 0.1 mm 3 mps 735 mmHg 79%
    10:00 +14°C° 0.1 mm 2 mps 735 mmHg 73%
    11:00 +15°C° 0.1 mm 2 mps 735 mmHg 66%
    12:00 +16°C° 0.3 mm 2 mps 735 mmHg 60%
    13:00 +17°C° 0.3 mm 2 mps 735 mmHg 55%
    14:00 +18°C° 0.3 mm 3 mps 734 mmHg 50%
    15:00 +18°C° 0.1 mm 3 mps 734 mmHg 49%
    16:00 +18°C° 0.1 mm 3 mps 734 mmHg 48%
    17:00 +18°C° 0.1 mm 3 mps 734 mmHg 48%
    18:00 +16°C° 0.3 mm 3 mps 734 mmHg 59%
    19:00 +13°C° 0.3 mm 3 mps 735 mmHg 71%
    20:00 +11°C° 0.3 mm 3 mps 735 mmHg 82%
    21:00 +10°C° 0 mm 4 mps 735 mmHg 81%
    22:00 +8°C° 0 mm 4 mps 736 mmHg 81%
    23:00 +7°C° 0 mm 4 mps 736 mmHg 80%
    Show more